Location: Unspecified
(55.8762°N, 37.5216°E)
Time: 10:55:36
(UTC+03:00)

BlueWalker 3 - Visible Passes

Search period start: 08 March 2026 00:00
Search period end: 18 March 2026 00:00
Orbit: 451 x 458 km, 53.2° (Epoch: 7 March)

Date Brightness Start Highest point End Pass type
(mag) Time Alt. Az. Time Alt. Az. Time Alt. Az.
8 Mar 2.5 04:27:25 44° SE 04:27:25 44° SE 04:30:19 10° E visible
8 Mar 2.1 06:01:06 14° W 06:04:02 52° S 06:07:32 10° ESE visible
9 Mar 3.8 03:52:36 24° ESE 03:52:36 24° ESE 03:54:13 10° E visible
9 Mar 2.0 05:26:17 27° WSW 05:27:58 54° S 05:31:29 10° ESE visible
10 Mar 4.8 03:17:46 12° E 03:17:46 12° E 03:18:06 10° E visible
10 Mar 1.9 04:51:27 52° SW 04:51:52 56° S 04:55:24 10° ESE visible
11 Mar 2.6 04:16:38 42° SE 04:16:38 42° SE 04:19:18 10° ESE visible
11 Mar 2.5 05:50:19 15° W 05:52:54 36° SSW 05:56:13 10° SE visible
12 Mar 4.0 03:41:50 21° ESE 03:41:50 21° ESE 03:43:10 10° E visible
12 Mar 2.3 05:15:31 29° WSW 05:16:48 40° SSW 05:20:12 10° SE visible
13 Mar 2.2 04:40:46 44° S 04:40:46 44° S 04:44:07 10° ESE visible
14 Mar 3.3 04:06:04 28° SE 04:06:04 28° SE 04:08:01 10° ESE visible
14 Mar 3.2 05:39:45 15° WSW 05:41:28 21° SSW 05:44:14 10° SSE visible
15 Mar 4.5 03:31:27 13° ESE 03:31:27 13° ESE 03:31:53 10° ESE visible
15 Mar 2.9 05:05:09 24° SW 05:05:22 24° SSW 05:08:20 10° SSE visible
16 Mar 3.4 04:30:39 21° SSE 04:30:39 21° SSE 04:32:22 10° SSE visible
17 Mar 4.5 03:56:17 10° SE 03:56:17 10° SE 03:56:19 10° SE visible
17 Mar 4.0 05:30:00 10° SW 05:30:00 10° SW 05:30:12 10° SW visible
